Location: Cheyres
(46.8153°N, 6.7877°E)
Time: 01:30:46
(UTC+00:00)

Tiros 1 - Pass Details

Date: 30 May 2022
Orbit: 629 x 663 km, 48.4° (Epoch: 05 July)

Event Time Altitude Azimuth Distance (km) Brightness Sun altitude
Exits shadow 00:54:03 15° 265° (W) 1,720 9.1 -18.9°
Maximum altitude 00:57:56 77° 350° (N) 653 7.2 -18.6°
Drops below altitude 10° 01:02:36 10° 78° (ENE) 2,027 10.1 -18.3°
Sets 01:04:57 0° 80° (E) 2,942 11.0 -18.2°
